Regional Weather Roundup
Issued by NWS

Home | Current Version | Previous Version | Graphics & Text | Print | Product List | Glossary On
Versions: 1 2 3 4 5 6 7 8 9 10 11 12 13 14 15 16 17 18 19 20 21 22 23 24 25 26 27 28 29 30 31 32 33 34 35 36 37 38 39 40 41 42 43 44 45 46 47 48 49 50
000
ASUS43 KMKX 310211
RWRWI

WISCONSIN REGIONAL WEATHER ROUNDUP
NATIONAL WEATHER SERVICE MILWAUKEE/SULLIVAN WI
900 PM CDT SAT JUL 30 2016

NOTE: "FAIR" INDICATES FEW OR NO CLOUDS BELOW 12,000 FEET WITH NO
SIGNIFICANT WEATHER AND/OR OBSTRUCTIONS TO VISIBILITY.

WIZ001-002-006>008-014>016-023>028-310300-
NORTHWEST WISCONSIN

CITY           SKY/WX    TMP DP  RH WIND       PRES   REMARKS
SUPERIOR ARPT  CLEAR     63  61  95 NE5       30.01S
ASHLAND        CLEAR     64  59  83 N5        30.02S
HAYWARD        CLEAR     66  62  87 CALM      30.02R
SIREN          NOT AVBL
CUMBERLAND     CLEAR     68  59  73 CALM      30.02R
RICE LAKE      CLEAR     68  61  77 CALM      30.03R
CHETEK         CLEAR     70  64  81 CALM      30.02R
LADYSMITH      PTCLDY    71  62  73 CALM      30.04R
EAU CLAIRE     CLEAR     72  62  71 SE7       30.00R
MENOMONIE      MOCLDY    73  62  69 SE3       30.00S
NEW RICHMOND   PTCLDY    71  62  74 CALM      30.00S
OSCEOLA        PTCLDY    71  63  76 CALM      30.01S
$$

WIZ003>005-009-010-017-018-310300-
NORTH CENTRAL WISCONSIN

CITY           SKY/WX    TMP DP  RH WIND       PRES   REMARKS
MANITOWISH WTR CLEAR     62  62 100 CALM      30.06R
ARBOR VITAE    CLEAR     65  58  77 SE3       30.07R
WOODRUFF       CLEAR     65  58  77 SE3       30.07R
RHINELANDER    CLEAR     67  55  65 SE3       30.08R
EAGLE RIVER    CLEAR     65  53  66 CALM      30.07R
LAND O LAKES   CLEAR     61  57  86 CALM      30.08R
PHILLIPS       CLEAR     68  60  75 CALM      30.04S
TOMAHAWK       CLEAR     63  57  80 SE3       30.07R
MEDFORD        PTCLDY    66  59  77 SE5       30.05S
MERRILL        CLEAR     67  58  74 SE3       30.07R
$$

WIZ029-030-035-036-043>047-310300-
CENTRAL WISCONSIN

CITY           SKY/WX    TMP DP  RH WIND       PRES   REMARKS
WAUSAU         CLEAR     67  55  65 E5        30.04R
MOSINEE        CLEAR     64  55  72 E5        30.07R
MARSHFIELD     MOCLDY    69  59  70 E6        30.04R
STEVENS POINT  CLEAR     64  57  77 CALM      30.06R
WAUPACA        CLEAR     66  60  80 NE3       30.04S
WAUTOMA        CLEAR     66  59  78 NE5       30.04R
WISC RAPIDS    CLEAR     68  54  60 E5        30.05R
CAMP DOUGLAS   PTCLDY    63  62  94 E3        30.02R
$$

WIZ011>013-019>022-031-037>040-048>050-310300-
NORTHEAST WISCONSIN

CITY           SKY/WX    TMP DP  RH WIND       PRES   REMARKS
ANTIGO         CLEAR     62  56  80 CALM      30.08R
SHAWANO        CLEAR     66  56  70 CALM      30.05R
OCONTO         CLEAR     62  62 100 CALM      30.04R
STURGEON BAY   CLEAR     68  56  65 NE3       30.05S
GREEN BAY      CLEAR     66  59  78 E5        30.04R
MANITOWOC      CLEAR     67  58  72 MISG      30.04S
APPLETON       PTCLDY    66  52  59 VRB5      30.02S
CLINTONVILLE   CLEAR     64  54  68 CALM      30.04S
OSHKOSH        CLEAR     70  56  61 E7        30.02S
$$

WIZ032>034-041-042-053>061-310300-
SOUTHWEST WISCONSIN

CITY           SKY/WX    TMP DP  RH WIND       PRES   REMARKS
LA CROSSE      MOCLDY    76  65  68 E6        29.99R
SPARTA         CLOUDY    69  66  89 E3        30.02R
VIROQUA        CLEAR     67  64  87 E3        30.03R
BOSCOBEL       CLEAR     69  66  90 CALM      30.00R
PRAIRIE DU CHI CLEAR     71  64  78 CALM      29.99S
PLATTEVILLE    CLEAR     70  65  85 CALM      30.01R
$$

WIZ056-057-062-063-064-067-068-310300-
SOUTH CENTRAL WISCONSIN

CITY           SKY/WX    TMP DP  RH WIND       PRES   REMARKS
REEDSBURG      CLEAR     70  61  71 CALM      30.02R
BARABOO/DELLS  CLEAR     66  58  75 E3        30.03R
LONE ROCK      CLEAR     69  63  81 CALM      30.01R
MINERAL POINT  CLEAR     70  64  83 E5        30.02R
MADISON        PTCLDY    69  57  65 NE3       30.01R
MIDDLETON      CLEAR     69  60  71 NE3       30.02R
WATERTOWN      CLEAR     66  58  74 CALM      30.02R
MONROE         CLEAR     70  61  73 NE6       30.00S
JANESVILLE     CLEAR     70  61  73 E7        29.99S
$$

WIZ051-052-058>065-066-070>072-310300-
SOUTHEAST WISCONSIN

CITY           SKY/WX    TMP DP  RH WIND       PRES   REMARKS
MILWAUKEE      PTCLDY    69  62  78 N9        30.01S
WAUKESHA       CLEAR     66  54  63 E7        30.03S
MILWAUKEE/TIMM CLEAR     68  59  73 NE6       30.03S
RACINE         MOCLDY    68  62  81 N6        30.03R
BURLINGTON     CLEAR     66  58  75 E5        30.02R
KENOSHA        CLOUDY    69  62  78 NE6       30.02R
FOND DU LAC    CLEAR     69  57  65 E7        30.03S
SHEBOYGAN      CLEAR     62  58  86 NE7       30.02F
WEST BEND      CLEAR     64  55  72 CALM      30.03S
JUNEAU         CLEAR     65  56  70 E7        30.04R
$$

LSZ147-162-310300-
LAKE SUPERIOR

STATION/POSITION TIME  TEMP    WIND        PRES    WAVE
                       AIR SEA DIR/SP/G            HT/PER
                 (UTC) (F)     (DEG/KT/KT) (MB)    (FT/S)
W MID LAKE BUOY  0150   65 63   80/  8/  8 1016.5S   0
DEVILS ISLAND    0200   67     100/  7/  9 1016.5F
PORT WING        0100   63      30/ 11/ 12 1016.3S
SAXON HARBOR     0140   67     190/  2/  3 1015.9S
$$

LMZ867-665-643>646-310300-
LAKE MICHIGAN

STATION/POSITION TIME  TEMP    WIND        PRES    WAVE
                       AIR SEA DIR/SP/G            HT/PER
                 (UTC) (F)     (DEG/KT/KT) (MB)    (FT/S)
CHAMBERS ISLAND  0100   72      30/  7/  9 1016.9S
S GREEN BAY BUOY 0100   71 71   80/ 10/ 12 1016.4
N MID LAKE BUOY  0150   71 70   60/ 12/ 12 1016.2F   1/ 3
NORTHPORT PIER   0100   72      50/  7/  9 1016.9R
SISTER BAY       0121   70        CALM       N/A
ALGOMA LAKESHORE 0113           60/  6/  9   N/A
KEWAUNEE LAKESHO 0100           30/  3/  5 1016.6
SHEBOYGAN LAKESH 0200   66      10/  9/  9 1016.7F
PORT WASHINGTON  0140   69     350/  3/  7 1017.3S
ATWATER BUOY     0200   67 65  360/  6/  8 1017.9F
MILWAUKEE LAKESH 0110   69      10/  9/ 10   N/A
S MID LAKE BUOY  0150   72 73   60/ 10/ 12 1015.0R   2/ 4
KENOSHA   LAKESH 0200   71      10/ 10/ 14 1015.9R
$$

TC  - TEMPERATURE IN CELSIUS
VSB - VISIBILITY IN STATUTE MILES
WCI - WIND CHILL INDEX
HX  - HEAT INDEX




USA.gov is the U.S. government's official web portal to all federal, state and local government web resources and services.